Date,TemperatureHighF,TemperatureAvgF,TemperatureLowF,DewpointHighF,DewpointAvgF,DewpointLowF,HumidityHigh,HumidityAvg,HumidityLow,PressureMaxIn,PressureMinIn,WindSpeedMaxMPH,WindSpeedAvgMPH,GustSpeedMaxMPH,PrecipitationSumIn
2013-4-1,47,38,34,31,27,21,84,65,39,29.94,29.88,17,9,24,0.00
2013-4-2,49,40,32,31,23,9,90,55,20,30.10,29.93,13,8,20,0.00
2013-4-3,41,38,32,32,27,22,94,66,50,30.10,30.03,13,8,21,0.00
2013-4-4,39,37,34,35,30,24,97,77,61,30.03,29.94,11,8,18,0.05
2013-4-5,47,40,36,33,27,18,83,62,33,30.15,29.93,13,8,21,0.00
2013-4-6,57,43,32,34,28,20,98,61,23,30.33,30.16,8,4,12,0.00
2013-4-7,57,43,26,40,24,2,96,55,11,30.33,29.93,6,2,9,0.00
2013-4-8,53,44,39,38,32,24,86,66,34,29.92,29.60,12,8,15,0.00
2013-4-9,50,44,39,44,42,38,99,91,77,29.59,29.42,8,5,11,0.07
2013-4-10,55,46,38,45,41,37,99,84,60,29.76,29.47,8,4,12,0.19
2013-4-11,45,45,44,45,45,44,99,99,99,29.46,29.40,11,9,16,0.08
2013-4-12,55,49,45,53,48,45,99,95,82,29.78,29.34,14,5,14,0.63
2013-4-13,56,49,39,54,47,38,99,92,71,29.96,29.80,12,6,19,0.99
2013-4-14,70,60,54,54,50,47,99,72,46,30.01,29.93,18,11,27,0.19
2013-4-15,61,56,51,50,48,46,89,76,63,30.11,30.00,12,8,17,0.00
2013-4-16,64,56,50,50,46,40,97,72,43,30.14,29.96,16,10,23,0.00
2013-4-17,68,57,49,54,51,47,99,81,53,30.15,29.83,17,9,22,0.00
2013-4-18,60,53,47,51,42,34,92,67,48,30.13,29.85,17,12,30,0.27
2013-4-19,61,51,43,44,40,31,91,69,32,30.55,30.14,8,5,14,0.00
2013-4-20,62,47,32,47,32,20,99,62,22,30.60,30.43,8,3,12,0.00
2013-4-21,63,48,30,43,33,26,99,63,25,30.42,30.07,8,3,14,0.00
2013-4-22,61,52,44,49,44,38,99,77,42,30.08,30.00,11,6,17,0.00
2013-4-23,75,62,51,51,48,41,98,64,30,30.26,30.03,8,4,14,0.00
2013-4-24,70,60,48,55,52,46,98,75,51,30.31,30.24,9,5,15,0.02
2013-4-25,78,63,50,56,51,44,99,70,32,30.30,30.05,17,6,17,0.09
2013-4-26,74,58,50,56,53,49,99,85,50,30.31,30.10,13,4,13,0.08
2013-4-27,78,61,40,54,45,33,97,59,32,30.15,30.00,17,6,17,0.28
2013-4-28,57,47,33,40,34,28,99,65,37,30.14,29.95,11,5,18,0.01
2013-4-29,63,53,46,46,36,28,92,56,28,30.21,29.92,11,6,17,0.09
2013-4-30,64,51,39,41,36,26,91,59,24,30.35,30.21,10,5,17,0.00